Regional Weather Roundup
Issued by NWS

Home | Current Version | Previous Version | Graphics & Text | Print | Product List | Glossary On
Versions: 1 2 3 4 5 6 7 8 9 10 11 12 13 14 15 16 17 18 19 20 21 22 23 24 25 26 27 28 29 30 31 32 33 34 35 36 37 38 39 40 41 42 43 44 45 46 47 48 49 50
000
ASUS43 KDTX 280910
RWRMI
MICHIGAN HOURLY REGIONAL WEATHER ROUNDUP
NATIONAL WEATHER SERVICE DETROIT/PONTIAC MI
400 AM EST WED JAN 28 2015

NOTE: "FAIR" INDICATES FEW OR NO CLOUDS BELOW 12,000 FEET WITH NO
SIGNIFICANT WEATHER AND/OR OBSTRUCTION TO VISIBILITY.

MIZ047>049-052>055-059>063-066>070-074>076-081>083-281000-
SOUTHEAST LOWER MICHIGAN

CITY           SKY/WX    TMP DP  RH WIND       PRES   REMARKS
ADRIAN         PTCLDY     9   6  88 NW7       30.28R
ALMA           PTCLDY     5   2  90 CALM      30.29R
ANN ARBOR      PTCLDY     6   3  87 W5        30.26R
BAD AXE        PTCLDY     3   1  91 CALM      30.24R
DETROIT CITY   CLEAR     14   8  77 CALM      30.25S
DETROIT        PTCLDY    13   8  81 CALM      30.27R
FLINT          CLEAR      7   2  80 W3        30.26R
GROSSE ILE     CLEAR     12   9  85 CALM      30.25R
HILLSDALE      MOCLDY     6   3  87 CALM      30.25R
HOWELL         CLEAR      7   5  90 W5        30.25R

CITY           SKY/WX    TMP DP  RH WIND       PRES   REMARKS
JACKSON        PTCLDY     6   1  80 CALM      30.26R
LAMBERTVILLE   PTCLDY    10   7  85 CALM      30.27R
LANSING        PTCLDY     8   4  83 W6        30.29R
LAPEER         NOT AVBL
MASON          PTCLDY     7   4  87 W3        30.27R
MONROE         CLEAR     12   9  85 CALM      30.25R
MT. CLEMENS    CLEAR     12   8  82 W5        30.23R
PONTIAC        CLEAR      7   3  84 CALM      30.22R
PORT HOPE        N/A     10   6  84 SW3       30.22R
PORT HURON     PTCLDY     1  -2  85 CALM      30.25R
TRI CITIES     CLEAR     10   5  80 W7        30.28R
YPSILANTI      PTCLDY    15   7  70 VRB5      30.26R
$$
MIZ043>046-050>051-056>058-064>065-071>073-077>080-281000-
SOUTHWEST LOWER MICHIGAN

CITY           SKY/WX    TMP DP  RH WIND       PRES   REMARKS
BATTLE CREEK   CLEAR     11   5  77 CALM      30.28R
BENTON HARBOR  PTCLDY    12  10  92 CALM      30.29R
BIG RAPIDS     PTCLDY     5   3  91 CALM      30.25F
COLDWATER      PTCLDY     8   5  88 CALM      30.28R
HOLLAND        PTCLDY    15  10  80 CALM      30.28S
GRAND RAPIDS   PTCLDY    11   7  84 CALM      30.28R
KALAMAZOO      PTCLDY     9   5  84 CALM      30.28R
MARSHALL       PTCLDY     7   4  88 CALM      30.27R
MUSKEGON       PTCLDY    13   8  81 E3        30.28F
$$
MIZ016>042-281000-
NORTHERN LOWER MICHIGAN

CITY           SKY/WX    TMP DP  RH WIND       PRES   REMARKS
ALPENA         PTCLDY    -4  -9  79 CALM      30.27R
BEAVER ISLAND  PTCLDY     2  -1  86 CALM      30.25S
BELLAIRE       PTCLDY     0  -4  84 CALM      30.29F
CADILLAC       PTCLDY    -1  -6  81 CALM      30.22S
CHARLEVOIX     CLEAR      3   0  88 E3        30.28F
FRANKFORT      PTSUNNY   10   7  90 CALM      30.26F
GAYLORD        PTCLDY    -5 -10  79 CALM      30.21S
GRAYLING       PTCLDY    -5 -10  81 CALM      30.25S
HARBOR SPRINGS MOCLDY     1  -3  80 CALM      30.26F
HOUGHTON LAKE  PTCLDY    -1  -6  79 CALM      30.24R
MANISTEE       PTCLDY     9   3  78 SE3       30.28S
OSCODA         PTCLDY     1  -4  79 CALM      30.26R
PELLSTON       MOCLDY    -7 -12  79 CALM      30.27S
TRAVERSE CITY  PTCLDY     5   1  83 CALM      30.26F
$$
MIZ007>008-015-281000-
EASTERN UPPER MICHIGAN

CITY           SKY/WX    TMP DP  RH WIND       PRES   REMARKS
KINROSS        MOCLDY     3   0  85 CALM      30.23F
MACKINAC ISLAN MOCLDY     8  -2  64 W6        30.25S
NEWBERRY       PTCLDY     4   1  88 SW7       30.22S
S. S. MARIE    PTCLDY     2  -3  80 CALM      30.25S
$$
MIZ004>006-011>014-085-281000-
CENTRAL UPPER MICHIGAN

CITY           SKY/WX    TMP DP  RH WIND       PRES   REMARKS
MANISTIQUE     CLOUDY     9   7  92 CALM      30.24S
ESCANABA       CLOUDY    21  16  79 S3        30.23F
MENOMINEE      MOCLDY    18  12  79 S3        30.23F
SAWYER-GWINN   CLOUDY    21  17  86 S8        30.17S
$$
MIZ001>003-009>011-084-281000-
WESTERN UPPER MICHIGAN

CITY           SKY/WX    TMP DP  RH WIND       PRES   REMARKS
IRON MOUNTAIN  CLOUDY    22  17  81 S6        30.17S
HOUGHTON       CLOUDY    23  18  81 S6        30.11F
COPPER HARBOR    N/A     27  19  72 SW7       30.15F
IRONWOOD       CLOUDY    25  21  86 S5        30.08F
$$

ABBREVIATIONS USED IN REMARKS
   TC - TEMPERATURE IN CELSIUS
  WCI - WIND CHILL INDEX
   HX - HEAT INDEX
  VSB - VISIBILITY



USA.gov is the U.S. government's official web portal to all federal, state and local government web resources and services.